Year,Month,Day,Hour,Minute,Value (Times are PST for temperature in C)
2017,06,15,00,00,13.40
2017,06,15,00,01,13.40
2017,06,15,00,02,13.50
2017,06,15,00,03,13.50
2017,06,15,00,04,13.50
2017,06,15,00,05,13.50
2017,06,15,00,06,13.50
2017,06,15,00,07,13.50
2017,06,15,00,08,13.40
2017,06,15,00,09,13.40
2017,06,15,00,10,13.40
2017,06,15,00,11,13.40
2017,06,15,00,12,13.40
2017,06,15,00,13,13.40
2017,06,15,00,14,13.40
2017,06,15,00,15,13.30
2017,06,15,00,16,13.30
2017,06,15,00,17,13.30
2017,06,15,00,18,13.30
2017,06,15,00,19,13.30
2017,06,15,00,20,13.30
2017,06,15,00,21,13.30
2017,06,15,00,22,13.30
2017,06,15,00,23,13.30
2017,06,15,00,24,13.30
2017,06,15,00,25,13.30
2017,06,15,00,26,13.30
2017,06,15,00,27,13.30
2017,06,15,00,28,13.30
2017,06,15,00,29,13.30
2017,06,15,00,30,13.30
2017,06,15,00,31,13.30
2017,06,15,00,32,13.30
2017,06,15,00,33,13.30
2017,06,15,00,34,13.30
2017,06,15,00,35,13.30
2017,06,15,00,36,13.30
2017,06,15,00,37,13.20
2017,06,15,00,38,13.20
2017,06,15,00,39,13.20
2017,06,15,00,40,13.20
2017,06,15,00,41,13.20
2017,06,15,00,42,13.20
2017,06,15,00,43,13.20
2017,06,15,00,44,13.20
2017,06,15,00,45,13.20
2017,06,15,00,46,13.20
2017,06,15,00,47,13.20
2017,06,15,00,48,13.20
2017,06,15,00,49,13.20
2017,06,15,00,50,13.20
2017,06,15,00,51,13.20
2017,06,15,00,52,13.20
2017,06,15,00,53,13.20
2017,06,15,00,54,13.20
2017,06,15,00,55,13.10
2017,06,15,00,56,13.10
2017,06,15,00,57,13.10
2017,06,15,00,58,13.10
2017,06,15,00,59,13.10
2017,06,15,01,00,13.10
2017,06,15,01,01,13.10
2017,06,15,01,02,13.10
2017,06,15,01,03,13.10
2017,06,15,01,04,13.10
2017,06,15,01,05,13.10
2017,06,15,01,06,13.10
2017,06,15,01,07,13.10
2017,06,15,01,08,13.10
2017,06,15,01,09,13.10
2017,06,15,01,10,13.10
2017,06,15,01,11,13.10
2017,06,15,01,12,13.10
2017,06,15,01,13,13.10
2017,06,15,01,14,13.10
2017,06,15,01,15,13.10
2017,06,15,01,16,13.10
2017,06,15,01,17,13.10
2017,06,15,01,18,13.10
2017,06,15,01,19,13.10
2017,06,15,01,20,13.10
2017,06,15,01,21,13.10
2017,06,15,01,22,13.10
2017,06,15,01,23,13.10
2017,06,15,01,24,13.10
2017,06,15,01,25,13.10
2017,06,15,01,26,13.10
2017,06,15,01,27,13.10
2017,06,15,01,28,13.10
2017,06,15,01,29,13.10
2017,06,15,01,30,13.10
2017,06,15,01,31,13.10
2017,06,15,01,32,13.10
2017,06,15,01,33,13.10
2017,06,15,01,34,13.10
2017,06,15,01,35,13.10
2017,06,15,01,36,13.10
2017,06,15,01,37,13.10
2017,06,15,01,38,13.10
2017,06,15,01,39,13.10
2017,06,15,01,40,13.10
2017,06,15,01,41,13.10
2017,06,15,01,42,13.10
2017,06,15,01,43,13.10
2017,06,15,01,44,13.10
2017,06,15,01,45,13.10
2017,06,15,01,46,13.10
2017,06,15,01,47,13.10
2017,06,15,01,48,13.10
2017,06,15,01,49,13.10
2017,06,15,01,50,13.10
2017,06,15,01,51,13.10
2017,06,15,01,52,13.10
2017,06,15,01,53,13.10
2017,06,15,01,54,13.10
2017,06,15,01,55,13.10
2017,06,15,01,56,13.10
2017,06,15,01,57,13.10
2017,06,15,01,58,13.10
2017,06,15,01,59,13.10
2017,06,15,02,00,13.00
2017,06,15,02,01,13.00
2017,06,15,02,02,13.00
2017,06,15,02,03,13.00
2017,06,15,02,04,13.00
2017,06,15,02,05,13.00
2017,06,15,02,06,13.00
2017,06,15,02,07,13.00
2017,06,15,02,08,13.00
2017,06,15,02,09,13.00
2017,06,15,02,10,13.00
2017,06,15,02,11,12.90
2017,06,15,02,12,12.90
2017,06,15,02,13,12.90
2017,06,15,02,14,12.90
2017,06,15,02,15,12.90
2017,06,15,02,16,12.90
2017,06,15,02,17,12.90
2017,06,15,02,18,12.90
2017,06,15,02,19,12.90
2017,06,15,02,20,12.90
2017,06,15,02,21,12.90
2017,06,15,02,22,12.90
2017,06,15,02,23,12.90
2017,06,15,02,24,12.90
2017,06,15,02,25,12.90
2017,06,15,02,26,12.90
2017,06,15,02,27,12.90
2017,06,15,02,28,12.90
2017,06,15,02,29,12.90
2017,06,15,02,30,12.90
2017,06,15,02,31,12.90
2017,06,15,02,32,12.90
2017,06,15,02,33,12.90
2017,06,15,02,34,12.90
2017,06,15,02,35,12.90
2017,06,15,02,36,12.90
2017,06,15,02,37,12.90
2017,06,15,02,38,12.90
2017,06,15,02,39,12.90
2017,06,15,02,40,12.90
2017,06,15,02,41,12.90
2017,06,15,02,42,12.90
2017,06,15,02,43,12.90
2017,06,15,02,44,12.90
2017,06,15,02,45,12.90
2017,06,15,02,46,12.90
2017,06,15,02,47,12.80
2017,06,15,02,48,12.80
2017,06,15,02,49,12.80
2017,06,15,02,50,12.80
2017,06,15,02,51,12.80
2017,06,15,02,52,12.80
2017,06,15,02,53,12.80
2017,06,15,02,54,12.80
2017,06,15,02,55,12.80
2017,06,15,02,56,12.80
2017,06,15,02,57,12.80
2017,06,15,02,58,12.80
2017,06,15,02,59,12.80
2017,06,15,03,00,12.80
2017,06,15,03,01,12.80
2017,06,15,03,02,12.80
2017,06,15,03,03,12.70
2017,06,15,03,04,12.70
2017,06,15,03,05,12.70
2017,06,15,03,06,12.70
2017,06,15,03,07,12.70
2017,06,15,03,08,12.70
2017,06,15,03,09,12.70
2017,06,15,03,10,12.70
2017,06,15,03,11,12.70
2017,06,15,03,12,12.70
2017,06,15,03,13,12.60
2017,06,15,03,14,12.60
2017,06,15,03,15,12.60
2017,06,15,03,16,12.60
2017,06,15,03,17,12.60
2017,06,15,03,18,12.60
2017,06,15,03,19,12.60
2017,06,15,03,20,12.60
2017,06,15,03,21,12.60
2017,06,15,03,22,12.60
2017,06,15,03,23,12.60
2017,06,15,03,24,12.60
2017,06,15,03,25,12.60
2017,06,15,03,26,12.50
2017,06,15,03,27,12.50
2017,06,15,03,28,12.50
2017,06,15,03,29,12.50
2017,06,15,03,30,12.50
2017,06,15,03,31,12.40
2017,06,15,03,32,12.40
2017,06,15,03,33,12.40
2017,06,15,03,34,12.40
2017,06,15,03,35,12.40
2017,06,15,03,36,12.40
2017,06,15,03,37,12.40
2017,06,15,03,38,12.30
2017,06,15,03,39,12.40
2017,06,15,03,40,12.30
2017,06,15,03,41,12.30
2017,06,15,03,42,12.30
2017,06,15,03,43,12.30
2017,06,15,03,44,12.30
2017,06,15,03,45,12.30
2017,06,15,03,46,12.30
2017,06,15,03,47,12.20
2017,06,15,03,48,12.20
2017,06,15,03,49,12.20
2017,06,15,03,50,12.20
2017,06,15,03,51,12.20
2017,06,15,03,52,12.20
2017,06,15,03,53,12.20
2017,06,15,03,54,12.20
2017,06,15,03,55,12.20
2017,06,15,03,56,12.20
2017,06,15,03,57,12.20
2017,06,15,03,58,12.20
2017,06,15,03,59,12.10
2017,06,15,04,00,12.10
2017,06,15,04,01,12.10
2017,06,15,04,02,12.10
2017,06,15,04,03,12.10
2017,06,15,04,04,12.10
2017,06,15,04,05,12.10
2017,06,15,04,06,12.10
2017,06,15,04,07,12.10
2017,06,15,04,08,12.10
2017,06,15,04,09,12.10
2017,06,15,04,10,12.10
2017,06,15,04,11,12.00
2017,06,15,04,12,12.00
2017,06,15,04,13,12.00
2017,06,15,04,14,12.00
2017,06,15,04,15,12.00
2017,06,15,04,16,12.00
2017,06,15,04,17,12.00
2017,06,15,04,18,12.00
2017,06,15,04,19,12.00
2017,06,15,04,20,12.00
2017,06,15,04,21,12.00
2017,06,15,04,22,12.00
2017,06,15,04,23,11.90
2017,06,15,04,24,11.90
2017,06,15,04,25,11.90
2017,06,15,04,26,11.90
2017,06,15,04,27,11.90
2017,06,15,04,28,11.90
2017,06,15,04,29,11.90
2017,06,15,04,30,11.90
2017,06,15,04,31,11.90
2017,06,15,04,32,11.90
2017,06,15,04,33,11.90
2017,06,15,04,34,11.90
2017,06,15,04,35,11.90
2017,06,15,04,36,11.90
2017,06,15,04,37,11.90
2017,06,15,04,38,11.90
2017,06,15,04,39,11.90
2017,06,15,04,40,11.90
2017,06,15,04,41,11.90
2017,06,15,04,42,11.90
2017,06,15,04,43,11.90
2017,06,15,04,44,11.90
2017,06,15,04,45,12.00
2017,06,15,04,46,12.00
2017,06,15,04,47,12.00
2017,06,15,04,48,12.00
2017,06,15,04,49,12.00
2017,06,15,04,50,12.00
2017,06,15,04,51,12.00
2017,06,15,04,52,12.00
2017,06,15,04,53,12.00
2017,06,15,04,54,12.00
2017,06,15,04,55,12.00
2017,06,15,04,56,12.00
2017,06,15,04,57,12.00
2017,06,15,04,58,12.00
2017,06,15,04,59,12.00
2017,06,15,05,00,12.00
2017,06,15,05,01,12.00
2017,06,15,05,02,12.00
2017,06,15,05,03,12.00
2017,06,15,05,04,12.00
2017,06,15,05,05,11.90
2017,06,15,05,06,11.90
2017,06,15,05,07,11.90
2017,06,15,05,08,11.90
2017,06,15,05,09,11.90
2017,06,15,05,10,11.90
2017,06,15,05,11,11.90
2017,06,15,05,12,11.90
2017,06,15,05,13,11.90
2017,06,15,05,14,11.90
2017,06,15,05,15,11.90
2017,06,15,05,16,11.90
2017,06,15,05,17,11.90
2017,06,15,05,18,11.90
2017,06,15,05,19,11.90
2017,06,15,05,20,11.90
2017,06,15,05,21,11.90
2017,06,15,05,22,11.90
2017,06,15,05,23,11.90
2017,06,15,05,24,11.90
2017,06,15,05,25,11.90
2017,06,15,05,26,11.90
2017,06,15,05,27,11.90
2017,06,15,05,28,11.90
2017,06,15,05,29,11.90
2017,06,15,05,30,11.80
2017,06,15,05,31,11.80
2017,06,15,05,32,11.80
2017,06,15,05,33,11.80
2017,06,15,05,34,11.80
2017,06,15,05,35,11.80
2017,06,15,05,36,11.80
2017,06,15,05,37,11.80
2017,06,15,05,38,11.80
2017,06,15,05,39,11.80
2017,06,15,05,40,11.80
2017,06,15,05,41,11.80
2017,06,15,05,42,11.80
2017,06,15,05,43,11.80
2017,06,15,05,44,11.80
2017,06,15,05,45,11.80
2017,06,15,05,46,11.70
2017,06,15,05,47,11.70
2017,06,15,05,48,11.70
2017,06,15,05,49,11.70
2017,06,15,05,50,11.70
2017,06,15,05,51,11.70
2017,06,15,05,52,11.70
2017,06,15,05,53,11.70
2017,06,15,05,54,11.70
2017,06,15,05,55,11.70
2017,06,15,05,56,11.70
2017,06,15,05,57,11.70
2017,06,15,05,58,11.70
2017,06,15,05,59,11.70
2017,06,15,06,00,11.60
2017,06,15,06,01,11.60
2017,06,15,06,02,11.60
2017,06,15,06,03,11.60
2017,06,15,06,04,11.60
2017,06,15,06,05,11.60
2017,06,15,06,06,11.60
2017,06,15,06,07,11.60
2017,06,15,06,08,11.60
2017,06,15,06,09,11.60
2017,06,15,06,10,11.60
2017,06,15,06,11,11.60
2017,06,15,06,12,11.60
2017,06,15,06,13,11.60
2017,06,15,06,14,11.60
2017,06,15,06,15,11.60
2017,06,15,06,16,11.60
2017,06,15,06,17,11.60
2017,06,15,06,18,11.60
2017,06,15,06,19,11.60
2017,06,15,06,20,11.50
2017,06,15,06,21,11.50
2017,06,15,06,22,11.50
2017,06,15,06,23,11.50
2017,06,15,06,24,11.50
2017,06,15,06,25,11.50
2017,06,15,06,26,11.50
2017,06,15,06,27,11.50
2017,06,15,06,28,11.50
2017,06,15,06,29,11.50
2017,06,15,06,30,11.50
2017,06,15,06,31,11.50
2017,06,15,06,32,11.50
2017,06,15,06,33,11.50
2017,06,15,06,34,11.50
2017,06,15,06,35,11.50
2017,06,15,06,36,11.50
2017,06,15,06,37,11.50
2017,06,15,06,38,11.50
2017,06,15,06,39,11.50
2017,06,15,06,40,11.60
2017,06,15,06,41,11.60
2017,06,15,06,42,11.60
2017,06,15,06,43,11.60
2017,06,15,06,44,11.60
2017,06,15,06,45,11.60
2017,06,15,06,46,11.60
2017,06,15,06,47,11.60
2017,06,15,06,48,11.60
2017,06,15,06,49,11.60
2017,06,15,06,50,11.60
2017,06,15,06,51,11.60
2017,06,15,06,52,11.70
2017,06,15,06,53,11.70
2017,06,15,06,54,11.70
2017,06,15,06,55,11.70
2017,06,15,06,56,11.70
2017,06,15,06,57,11.70
2017,06,15,06,58,11.70
2017,06,15,06,59,11.80
2017,06,15,07,00,11.80
2017,06,15,07,01,11.80
2017,06,15,07,02,11.80
2017,06,15,07,03,11.80
2017,06,15,07,04,11.80
2017,06,15,07,05,11.80
2017,06,15,07,06,11.80
2017,06,15,07,07,11.80
2017,06,15,07,08,11.80
2017,06,15,07,09,11.80
2017,06,15,07,10,11.80
2017,06,15,07,11,11.80
2017,06,15,07,12,11.80
2017,06,15,07,13,11.80
2017,06,15,07,14,11.80
2017,06,15,07,15,11.80
2017,06,15,07,16,11.80
2017,06,15,07,17,11.80
2017,06,15,07,18,11.80
2017,06,15,07,19,11.80
2017,06,15,07,20,11.80
2017,06,15,07,21,11.80
2017,06,15,07,22,11.80
2017,06,15,07,23,11.80
2017,06,15,07,24,11.80
2017,06,15,07,25,11.80
2017,06,15,07,26,11.80
2017,06,15,07,27,11.80
2017,06,15,07,28,11.80
2017,06,15,07,29,11.90
2017,06,15,07,30,11.90
2017,06,15,07,31,11.90
2017,06,15,07,32,11.90
2017,06,15,07,33,11.90
2017,06,15,07,34,11.90
2017,06,15,07,35,11.90
2017,06,15,07,36,11.90
2017,06,15,07,37,11.90
2017,06,15,07,38,11.90
2017,06,15,07,39,11.90
2017,06,15,07,40,11.90
2017,06,15,07,41,11.90
2017,06,15,07,42,12.00
2017,06,15,07,43,12.00
2017,06,15,07,44,12.00
2017,06,15,07,45,12.00
2017,06,15,07,46,12.00
2017,06,15,07,47,12.10
2017,06,15,07,48,12.00
2017,06,15,07,49,12.00
2017,06,15,07,50,12.00
2017,06,15,07,51,12.00
2017,06,15,07,52,12.00
2017,06,15,07,53,12.10
2017,06,15,07,54,12.10
2017,06,15,07,55,12.10
2017,06,15,07,56,12.10
2017,06,15,07,57,12.00
2017,06,15,07,58,12.00
2017,06,15,07,59,12.00
2017,06,15,08,00,12.00
2017,06,15,08,01,12.00
2017,06,15,08,02,12.00
2017,06,15,08,03,12.00
2017,06,15,08,04,12.00
2017,06,15,08,05,11.90
2017,06,15,08,06,11.90
2017,06,15,08,07,11.90
2017,06,15,08,08,11.90
2017,06,15,08,09,11.90
2017,06,15,08,10,11.90
2017,06,15,08,11,11.90
2017,06,15,08,12,11.90
2017,06,15,08,13,11.90
2017,06,15,08,14,11.90
2017,06,15,08,15,11.90
2017,06,15,08,16,11.90
2017,06,15,08,17,11.90
2017,06,15,08,18,11.90
2017,06,15,08,19,11.90
2017,06,15,08,20,11.90
2017,06,15,08,21,11.90
2017,06,15,08,22,11.90
2017,06,15,08,23,11.90
2017,06,15,08,24,12.00
2017,06,15,08,25,12.00
2017,06,15,08,26,12.00
2017,06,15,08,27,11.90
2017,06,15,08,28,11.90
2017,06,15,08,29,11.90
2017,06,15,08,30,12.00
2017,06,15,08,31,12.00
2017,06,15,08,32,12.00
2017,06,15,08,33,12.00
2017,06,15,08,34,12.00
2017,06,15,08,35,12.00
2017,06,15,08,36,12.00
2017,06,15,08,37,12.00
2017,06,15,08,38,12.00
2017,06,15,08,39,12.00
2017,06,15,08,40,12.00
2017,06,15,08,41,12.00
2017,06,15,08,42,12.00
2017,06,15,08,43,12.00
2017,06,15,08,44,12.00
2017,06,15,08,45,12.00
2017,06,15,08,46,11.90
2017,06,15,08,47,11.90
2017,06,15,08,48,11.90
2017,06,15,08,49,11.90
2017,06,15,08,50,11.90
2017,06,15,08,51,11.90
2017,06,15,08,52,11.90
2017,06,15,08,53,11.90
2017,06,15,08,54,11.90
2017,06,15,08,55,11.90
2017,06,15,08,56,11.90
2017,06,15,08,57,11.90
2017,06,15,08,58,11.90
2017,06,15,08,59,11.90
2017,06,15,09,00,11.90
2017,06,15,09,01,11.90
2017,06,15,09,02,11.90
2017,06,15,09,03,11.90
2017,06,15,09,04,11.90
2017,06,15,09,05,11.90
2017,06,15,09,06,11.90
2017,06,15,09,07,11.90
2017,06,15,09,08,11.90
2017,06,15,09,09,11.90
2017,06,15,09,10,11.90
2017,06,15,09,11,11.90
2017,06,15,09,12,11.90
2017,06,15,09,13,11.90
2017,06,15,09,14,11.90
2017,06,15,09,15,11.90
2017,06,15,09,16,12.00
2017,06,15,09,17,12.00
2017,06,15,09,18,12.00
2017,06,15,09,19,12.00
2017,06,15,09,20,12.00
2017,06,15,09,21,12.10
2017,06,15,09,22,12.10
2017,06,15,09,23,12.10
2017,06,15,09,24,12.10
2017,06,15,10,57,12.00
2017,06,15,10,58,12.00
2017,06,15,10,59,12.00
2017,06,15,11,00,12.00
2017,06,15,11,01,12.00
2017,06,15,11,02,12.00
2017,06,15,11,03,12.00
2017,06,15,11,04,12.00
2017,06,15,11,05,12.00
2017,06,15,11,06,12.00
2017,06,15,11,07,12.00
2017,06,15,11,08,12.00
2017,06,15,11,09,12.00
2017,06,15,11,10,12.00
2017,06,15,11,11,12.00
2017,06,15,11,12,12.00
2017,06,15,11,13,12.00
2017,06,15,11,14,11.90
2017,06,15,11,15,11.90
2017,06,15,11,16,11.90
2017,06,15,11,17,11.90
2017,06,15,11,18,11.90
2017,06,15,11,19,12.00
2017,06,15,11,20,12.00
2017,06,15,11,21,12.00
2017,06,15,11,22,12.00
2017,06,15,11,23,12.00
2017,06,15,11,24,12.00
2017,06,15,11,25,12.10
2017,06,15,11,26,12.10
2017,06,15,11,27,12.10
2017,06,15,11,28,12.10
2017,06,15,11,29,12.10
2017,06,15,11,30,12.10
2017,06,15,11,31,12.10
2017,06,15,11,32,12.10
2017,06,15,11,33,12.10
2017,06,15,11,34,12.10
2017,06,15,11,35,12.10
2017,06,15,11,36,12.10
2017,06,15,11,37,12.10
2017,06,15,11,38,12.10
2017,06,15,11,39,12.10
2017,06,15,11,40,12.10
2017,06,15,11,41,12.10
2017,06,15,11,42,12.10
2017,06,15,11,43,12.10
2017,06,15,11,44,12.10
2017,06,15,11,45,12.10
2017,06,15,11,46,12.10
2017,06,15,11,47,12.10
2017,06,15,11,48,12.10
2017,06,15,11,49,12.10
2017,06,15,11,50,12.10
2017,06,15,11,51,12.10
2017,06,15,11,52,12.10
2017,06,15,11,53,12.10
2017,06,15,11,54,12.10
2017,06,15,11,55,12.10
2017,06,15,11,56,12.10
2017,06,15,11,57,12.10
2017,06,15,11,58,12.10
2017,06,15,11,59,12.10
2017,06,15,12,00,12.10
2017,06,15,12,01,12.20
2017,06,15,12,02,12.20
2017,06,15,12,03,12.20
2017,06,15,12,04,12.20
2017,06,15,12,05,12.20
2017,06,15,12,06,12.20
2017,06,15,12,07,12.20
2017,06,15,12,08,12.20
2017,06,15,12,09,12.20
2017,06,15,12,10,12.20
2017,06,15,12,11,12.20
2017,06,15,12,12,12.20
2017,06,15,12,13,12.20
2017,06,15,12,14,12.20
2017,06,15,12,15,12.20
2017,06,15,12,16,12.20
2017,06,15,12,17,12.20
2017,06,15,12,18,12.20
2017,06,15,12,19,12.10
2017,06,15,12,20,12.10
2017,06,15,12,21,12.10
2017,06,15,12,22,12.10
2017,06,15,12,23,12.20
2017,06,15,12,24,12.20
2017,06,15,12,25,12.20
2017,06,15,12,26,12.20
2017,06,15,12,27,12.20
2017,06,15,12,28,12.20
2017,06,15,12,29,12.20
2017,06,15,12,30,12.20
2017,06,15,12,31,12.20
2017,06,15,12,32,12.20
2017,06,15,12,33,12.20
2017,06,15,12,34,12.20
2017,06,15,12,35,12.20
2017,06,15,12,36,12.20
2017,06,15,12,37,12.20
2017,06,15,12,38,12.20
2017,06,15,12,39,12.20
2017,06,15,12,40,12.20
2017,06,15,12,41,12.20
2017,06,15,12,42,12.20
2017,06,15,12,43,12.20
2017,06,15,12,44,12.20
2017,06,15,12,45,12.20
2017,06,15,12,46,12.20
2017,06,15,12,47,12.20
2017,06,15,12,48,12.30
2017,06,15,12,49,12.30
2017,06,15,12,50,12.30
2017,06,15,12,51,12.30
2017,06,15,12,52,12.30
2017,06,15,12,53,12.30
2017,06,15,12,54,12.30
2017,06,15,12,55,12.20
2017,06,15,12,56,12.30
2017,06,15,12,57,12.30
2017,06,15,12,58,12.30
2017,06,15,12,59,12.30
2017,06,15,13,00,12.30
2017,06,15,13,01,12.30
2017,06,15,13,02,12.30
2017,06,15,13,03,12.30
2017,06,15,13,04,12.30
2017,06,15,13,05,12.40
2017,06,15,13,06,12.40
2017,06,15,13,07,12.40
2017,06,15,13,08,12.40
2017,06,15,13,09,12.40
2017,06,15,13,10,12.40
2017,06,15,13,11,12.40
2017,06,15,13,12,12.40
2017,06,15,13,13,12.40
2017,06,15,13,14,12.40
2017,06,15,13,15,12.40
2017,06,15,13,16,12.40
2017,06,15,13,17,12.40
2017,06,15,13,18,12.40
2017,06,15,13,19,12.40
2017,06,15,13,20,12.40
2017,06,15,13,21,12.40
2017,06,15,13,22,12.40
2017,06,15,13,23,12.40
2017,06,15,13,24,12.40
2017,06,15,13,25,12.40
2017,06,15,13,26,12.40
2017,06,15,13,27,12.40
2017,06,15,13,28,12.40
2017,06,15,13,29,12.50
2017,06,15,13,30,12.50
2017,06,15,13,31,12.50
2017,06,15,13,32,12.50
2017,06,15,13,33,12.50
2017,06,15,13,34,12.50
2017,06,15,13,35,12.50
2017,06,15,13,36,12.50
2017,06,15,13,37,12.50
2017,06,15,13,38,12.50
2017,06,15,13,39,12.50
2017,06,15,13,40,12.50
2017,06,15,13,41,12.50
2017,06,15,13,42,12.50
2017,06,15,13,43,12.50
2017,06,15,13,44,12.60
2017,06,15,13,45,12.60
2017,06,15,13,46,12.60
2017,06,15,13,47,12.60
2017,06,15,13,48,12.60
2017,06,15,13,49,12.50
2017,06,15,13,50,12.50
2017,06,15,13,51,12.50
2017,06,15,13,52,12.50
2017,06,15,13,53,12.50
2017,06,15,13,54,12.60
2017,06,15,13,55,12.60
2017,06,15,13,56,12.60
2017,06,15,13,57,12.60
2017,06,15,13,58,12.60
2017,06,15,13,59,12.60
2017,06,15,14,00,12.60
2017,06,15,14,01,12.60
2017,06,15,14,02,12.60
2017,06,15,14,03,12.60
2017,06,15,14,04,12.60
2017,06,15,14,05,12.60
2017,06,15,14,06,12.70
2017,06,15,14,07,12.60
2017,06,15,14,08,12.70
2017,06,15,14,09,12.70
2017,06,15,14,10,12.70
2017,06,15,14,11,12.70
2017,06,15,14,12,12.70
2017,06,15,14,13,12.70
2017,06,15,14,14,12.70
2017,06,15,14,15,12.70
2017,06,15,14,16,12.70
2017,06,15,14,17,12.70
2017,06,15,14,18,12.70
2017,06,15,14,19,12.70
2017,06,15,14,20,12.70
2017,06,15,14,21,12.80
2017,06,15,14,22,12.80
2017,06,15,14,23,12.80
2017,06,15,14,24,12.80
2017,06,15,14,25,12.80
2017,06,15,14,26,12.80
2017,06,15,14,27,12.80
2017,06,15,14,28,12.80
2017,06,15,14,29,12.80
2017,06,15,14,30,12.80
2017,06,15,14,31,12.80
2017,06,15,14,32,12.80
2017,06,15,14,33,12.80
2017,06,15,14,34,12.80
2017,06,15,14,35,12.80
2017,06,15,14,36,12.80
2017,06,15,14,37,12.80
2017,06,15,14,38,12.80
2017,06,15,14,39,12.80
2017,06,15,14,40,12.80
2017,06,15,14,41,12.80
2017,06,15,14,42,12.80
2017,06,15,14,43,12.80
2017,06,15,14,44,12.80
2017,06,15,14,45,12.80
2017,06,15,14,46,12.80
2017,06,15,14,47,12.80
2017,06,15,14,48,12.80
2017,06,15,14,49,12.80
2017,06,15,14,50,12.80
2017,06,15,14,51,12.80
2017,06,15,14,52,12.80
2017,06,15,14,53,12.80
2017,06,15,14,54,12.80
2017,06,15,14,55,12.80
2017,06,15,14,56,12.90
2017,06,15,14,57,12.90
2017,06,15,14,58,12.90
2017,06,15,14,59,12.90
2017,06,15,15,00,12.90
2017,06,15,15,01,12.90
2017,06,15,15,02,12.90
2017,06,15,15,03,12.90
2017,06,15,15,04,12.90
2017,06,15,15,05,12.90
2017,06,15,15,06,12.90
2017,06,15,15,07,12.90
2017,06,15,15,08,12.90
2017,06,15,15,09,12.90
2017,06,15,15,10,12.90
2017,06,15,15,11,12.90
2017,06,15,15,12,12.90
2017,06,15,15,13,13.00
2017,06,15,15,14,13.00
2017,06,15,15,15,13.00
2017,06,15,15,16,13.00
2017,06,15,15,17,13.00
2017,06,15,15,18,13.10
2017,06,15,15,19,13.10
2017,06,15,15,20,13.10
2017,06,15,15,21,13.10
2017,06,15,15,22,13.10
2017,06,15,15,23,13.10
2017,06,15,15,24,13.10
2017,06,15,15,25,13.10
2017,06,15,15,26,13.10
2017,06,15,15,27,13.10
2017,06,15,15,28,13.10
2017,06,15,15,29,13.10
2017,06,15,15,30,13.10
2017,06,15,15,31,13.10
2017,06,15,15,32,13.10
2017,06,15,15,33,13.10
2017,06,15,15,34,13.10
2017,06,15,15,35,13.10
2017,06,15,15,36,13.10
2017,06,15,15,37,13.20
2017,06,15,15,38,13.20
2017,06,15,15,39,13.20
2017,06,15,15,40,13.20
2017,06,15,15,41,13.20
2017,06,15,15,42,13.20
2017,06,15,15,43,13.30
2017,06,15,15,44,13.30
2017,06,15,15,45,13.30
2017,06,15,15,46,13.30
2017,06,15,15,47,13.30
2017,06,15,15,48,13.30
2017,06,15,15,49,13.30
2017,06,15,15,50,13.30
2017,06,15,15,51,13.30
2017,06,15,15,52,13.30
2017,06,15,15,53,13.30
2017,06,15,15,54,13.30
2017,06,15,15,55,13.30
2017,06,15,15,56,13.30
2017,06,15,15,57,13.30
2017,06,15,15,58,13.40
2017,06,15,15,59,13.40
2017,06,15,16,00,13.40
2017,06,15,16,01,13.50
2017,06,15,16,02,13.50
2017,06,15,16,03,13.50
2017,06,15,16,04,13.50
2017,06,15,16,05,13.60
2017,06,15,16,06,13.60
2017,06,15,16,07,13.50
2017,06,15,16,08,13.50
2017,06,15,16,09,13.50
2017,06,15,16,10,13.50
2017,06,15,16,11,13.50
2017,06,15,16,12,13.50
2017,06,15,16,13,13.50
2017,06,15,16,14,13.50
2017,06,15,16,15,13.50
2017,06,15,16,16,13.60
2017,06,15,16,17,13.60
2017,06,15,16,18,13.60
2017,06,15,16,19,13.70
2017,06,15,16,20,13.70
2017,06,15,16,21,13.70
2017,06,15,16,22,13.70
2017,06,15,16,23,13.70
2017,06,15,16,24,13.70
2017,06,15,16,25,13.60
2017,06,15,16,26,13.60
2017,06,15,16,27,13.60
2017,06,15,16,28,13.70
2017,06,15,16,29,13.70
2017,06,15,16,30,13.70
2017,06,15,16,31,13.70
2017,06,15,16,32,13.70
2017,06,15,16,33,13.70
2017,06,15,16,34,13.70
2017,06,15,16,35,13.70
2017,06,15,16,36,13.70
2017,06,15,16,37,13.70
2017,06,15,16,38,13.70
2017,06,15,16,39,13.70
2017,06,15,16,40,13.70
2017,06,15,16,41,13.70
2017,06,15,16,42,13.70
2017,06,15,16,43,13.70
2017,06,15,16,44,13.70
2017,06,15,16,45,13.70
2017,06,15,16,46,13.70
2017,06,15,16,47,13.70
2017,06,15,16,48,13.70
2017,06,15,16,49,13.70
2017,06,15,16,50,13.70
2017,06,15,16,51,13.70
2017,06,15,16,52,13.70
2017,06,15,16,53,13.70
2017,06,15,16,54,13.70
2017,06,15,16,55,13.80
2017,06,15,16,56,13.80
2017,06,15,16,57,13.80
2017,06,15,16,58,13.80
2017,06,15,16,59,13.80
2017,06,15,17,00,13.80
2017,06,15,17,01,13.80
2017,06,15,17,02,13.80
2017,06,15,17,03,13.80
2017,06,15,17,04,13.80
2017,06,15,17,05,13.80
2017,06,15,17,06,13.80
2017,06,15,17,07,13.70
2017,06,15,17,08,13.70
2017,06,15,17,09,13.70
2017,06,15,17,10,13.70
2017,06,15,17,11,13.70
2017,06,15,17,12,13.70
2017,06,15,17,13,13.70
2017,06,15,17,14,13.70
2017,06,15,17,15,13.70
2017,06,15,17,16,13.70
2017,06,15,17,17,13.70
2017,06,15,17,18,13.70
2017,06,15,17,19,13.70
2017,06,15,17,20,13.70
2017,06,15,17,21,13.70
2017,06,15,17,22,13.70
2017,06,15,17,23,13.70
2017,06,15,17,24,13.70
2017,06,15,17,25,13.70
2017,06,15,17,26,13.70
2017,06,15,17,27,13.70
2017,06,15,17,28,13.70
2017,06,15,17,29,13.70
2017,06,15,17,30,13.70
2017,06,15,17,31,13.70
2017,06,15,17,32,13.70
2017,06,15,17,33,13.70
2017,06,15,17,34,13.70
2017,06,15,17,35,13.70
2017,06,15,17,36,13.70
2017,06,15,17,37,13.70
2017,06,15,17,38,13.70
2017,06,15,17,39,13.70
2017,06,15,17,40,13.70
2017,06,15,17,41,13.70
2017,06,15,17,42,13.70
2017,06,15,17,43,13.70
2017,06,15,17,44,13.70
2017,06,15,17,45,13.80
2017,06,15,17,46,13.80
2017,06,15,17,47,13.80
2017,06,15,17,48,13.80
2017,06,15,17,49,13.80
2017,06,15,17,50,13.80
2017,06,15,17,51,13.80
2017,06,15,17,52,13.80
2017,06,15,17,53,13.80
2017,06,15,17,54,13.80
2017,06,15,17,55,13.80
2017,06,15,17,56,13.90
2017,06,15,17,57,13.90
2017,06,15,17,58,13.90
2017,06,15,17,59,13.90
2017,06,15,18,00,13.90
2017,06,15,18,01,13.90
2017,06,15,18,02,13.90
2017,06,15,18,03,13.90
2017,06,15,18,04,13.90
2017,06,15,18,05,14.00
2017,06,15,18,06,14.00
2017,06,15,18,07,14.00
2017,06,15,18,08,14.00
2017,06,15,18,09,14.00
2017,06,15,18,10,14.00
2017,06,15,18,11,14.10
2017,06,15,18,12,14.10
2017,06,15,18,13,14.10
2017,06,15,18,14,14.00
2017,06,15,18,15,14.00
2017,06,15,18,16,14.00
2017,06,15,18,17,14.00
2017,06,15,18,18,14.00
2017,06,15,18,19,14.10
2017,06,15,18,20,14.10
2017,06,15,18,21,14.10
2017,06,15,18,22,14.10
2017,06,15,18,23,14.10
2017,06,15,18,24,14.10
2017,06,15,18,25,14.10
2017,06,15,18,26,14.10
2017,06,15,18,27,14.10
2017,06,15,18,28,14.10
2017,06,15,18,29,14.10
2017,06,15,18,30,14.10
2017,06,15,18,31,14.10
2017,06,15,18,32,14.10
2017,06,15,18,33,14.10
2017,06,15,18,34,14.10
2017,06,15,18,35,14.10
2017,06,15,18,36,14.10
2017,06,15,18,37,14.10
2017,06,15,18,38,14.10
2017,06,15,18,39,14.10
2017,06,15,18,40,14.10
2017,06,15,18,41,14.10
2017,06,15,18,42,14.10
2017,06,15,18,43,14.10
2017,06,15,18,44,14.10
2017,06,15,18,45,14.10
2017,06,15,18,46,14.10
2017,06,15,18,47,14.10
2017,06,15,18,48,14.10
2017,06,15,18,49,14.10
2017,06,15,18,50,14.10
2017,06,15,18,51,14.10